Location: Boiro
(42.6475°N, 8.8834°W)
Time: 09:07:48
(UTC+01:00)

SR - Pass Details

Date: 01 December 2021
Orbit: 583 x 872 km, 66.7° (Epoch: 16 January)

Event Time Altitude Azimuth Distance (km) Brightness Sun altitude
Rises 03:03:46 0° 251° (WSW) 2,967 - -60.6°
Reaches altitude 10° 03:06:44 10° 270° (W) 2,011 - -60.2°
Maximum altitude 03:09:53 18° 314° (NW) 1,496 - -59.7°
Drops below altitude 10° 03:12:57 10° 359° (N) 1,941 - -59.3°
Sets 03:15:45 0° 19° (NNE) 2,825 - -58.8°
